TimePDT,TemperatureF,Dew PointF,Humidity,Sea Level PressureIn,VisibilityMPH,Wind Direction,Wind SpeedMPH,Gust SpeedMPH,PrecipitationIn,Events,Conditions,WindDirDegrees,DateUTC
12:53 AM,48.0,39.0,71,30.00,10.0,WNW,4.6,-,N/A,,Clear,300,2013-05-15 07:53:00
1:53 AM,43.0,39.0,86,30.01,10.0,Calm,Calm,-,N/A,,Clear,0,2013-05-15 08:53:00
2:53 AM,42.1,37.0,82,30.00,10.0,West,3.5,-,N/A,,Clear,280,2013-05-15 09:53:00
3:53 AM,39.9,37.9,93,29.99,10.0,East,4.6,-,N/A,,Clear,80,2013-05-15 10:53:00
4:53 AM,42.1,37.9,85,29.99,10.0,Calm,Calm,-,N/A,,Clear,0,2013-05-15 11:53:00
5:53 AM,39.9,37.9,93,30.01,10.0,Calm,Calm,-,N/A,,Clear,0,2013-05-15 12:53:00
6:53 AM,42.1,39.0,89,30.00,10.0,Calm,Calm,-,N/A,,Scattered Clouds,0,2013-05-15 13:53:00
7:53 AM,51.1,42.1,71,29.99,10.0,SW,3.5,-,N/A,,Scattered Clouds,220,2013-05-15 14:53:00
8:53 AM,54.0,43.0,66,29.99,10.0,Calm,Calm,-,N/A,,Scattered Clouds,0,2013-05-15 15:53:00
9:53 AM,59.0,39.9,49,29.99,10.0,SSW,4.6,-,N/A,,Scattered Clouds,210,2013-05-15 16:53:00
10:53 AM,61.0,37.0,41,29.96,10.0,Calm,Calm,-,N/A,,Scattered Clouds,0,2013-05-15 17:53:00
11:53 AM,66.0,33.1,29,29.95,10.0,West,9.2,17.3,N/A,,Scattered Clouds,270,2013-05-15 18:53:00
12:53 PM,66.0,34.0,30,29.95,10.0,West,12.7,20.7,N/A,,Mostly Cloudy,270,2013-05-15 19:53:00
1:53 PM,68.0,35.1,30,29.94,10.0,West,12.7,21.9,N/A,,Mostly Cloudy,280,2013-05-15 20:53:00
2:53 PM,68.0,37.9,33,29.95,10.0,West,17.3,27.6,N/A,,Mostly Cloudy,280,2013-05-15 21:53:00
3:53 PM,66.9,39.9,37,29.95,10.0,West,19.6,24.2,N/A,,Mostly Cloudy,280,2013-05-15 22:53:00
4:53 PM,64.9,39.9,40,29.96,10.0,WNW,16.1,21.9,N/A,,Scattered Clouds,300,2013-05-15 23:53:00
5:53 PM,61.0,39.9,46,29.98,10.0,WNW,16.1,23.0,N/A,,Partly Cloudy,300,2013-05-16 00:53:00
6:53 PM,57.0,42.1,57,29.99,10.0,WNW,17.3,20.7,0.00,,Mostly Cloudy,290,2013-05-16 01:53:00
7:53 PM,55.0,39.9,57,29.97,10.0,West,13.8,-,0.00,,Scattered Clouds,270,2013-05-16 02:53:00
8:53 PM,52.0,39.0,61,29.99,10.0,NW,12.7,-,N/A,,Clear,320,2013-05-16 03:53:00
9:53 PM,48.0,39.0,71,29.99,10.0,West,8.1,-,N/A,,Clear,260,2013-05-16 04:53:00
10:53 PM,46.0,39.0,76,29.99,10.0,Calm,Calm,-,N/A,,Clear,0,2013-05-16 05:53:00
11:53 PM,46.0,39.0,76,29.97,10.0,West,4.6,-,N/A,,Clear,270,2013-05-16 06:53:00